EW2642 Weather Reports


time (UTC)temp
F
wind
direction
speed
knots
gust
knots
rain 1hr
in
rain 24hr
in
rain mn
in
humidity
%
barometer
mb
20260902103021 66 133 3.5 7.0 0.00 0.00 0.00 81 852.2
20260902101523 66 132 3.5 7.0 0.00 0.00 0.00 80 852.3
20260902100023 66 115 5.2 7.8 0.00 0.00 0.00 80 852.4
20260902094526 66 130 3.5 7.8 0.00 0.00 0.00 79 852.5
20260902093026 66 131 3.5 7.8 0.00 0.00 0.00 76 852.4
20260902091527 67 152 3.5 8.7 0.00 0.00 0.00 74 852.5
20260902090028 67 130 7.0 13.0 0.00 0.00 0.00 72 852.4
20260902084530 66 144 2.6 6.1 0.00 0.00 0.00 73 852.6
20260902083028 66 141 3.5 7.0 0.00 0.00 0.00 73 852.5
20260902081529 65 150 3.5 6.1 0.00 0.00 0.00 74 852.5
20260902080026 66 136 4.3 7.0 0.00 0.00 0.00 74 852.5
20260902074527 66 137 2.6 4.3 0.00 0.00 0.00 74 852.4
20260902073004 66 128 3.5 6.1 0.00 0.00 0.00 74 852.4
20260902071504 66 128 3.5 6.1 0.00 0.00 0.00 75 852.4
20260902070007 66 140 3.5 5.2 0.00 0.00 0.00 75 852.5
20260902064528 65 143 2.6 6.1 0.00 0.00 0.00 76 852.6
20260902063053 64 157 1.7 3.5 0.00 0.00 0.00 77 852.6
20260902061531 64 158 0.9 3.5 0.00 0.00 0.00 77 852.6
20260902060028 64 159 0.9 3.5 0.00 0.00 0.00 76 852.7
20260902054533 64 146 1.7 3.5 0.00 0.00 0.00 75 852.7
20260902053031 64 144 1.7 4.3 0.00 0.00 0.00 74 852.7
20260902051537 65 153 1.7 5.2 0.00 0.00 0.00 72 852.8
20260902050031 66 138 0.9 2.6 0.00 0.00 0.00 70 852.8
20260902044531 67 136 1.7 2.6 0.00 0.00 0.00 69 852.7
20260902043031 68 123 1.7 2.6 0.00 0.00 0.00 66 852.6
20260902041544 70 202 0.9 1.7 0.00 0.00 0.00 64 852.6
20260902040029 71 217 0.0 1.7 0.00 0.00 0.00 62 852.5
20260902034530 72 185 0.9 4.3 0.00 0.00 0.00 57 852.4
20260902033027 72 198 2.6 5.2 0.00 0.00 0.00 57 852.2
20260902031527 72 202 4.3 7.0 0.00 0.00 0.00 56 852.1
20260902030029 72 176 2.6 7.8 0.00 0.00 0.00 54 851.9
20260902024529 73 183 3.5 7.8 0.00 0.00 0.00 52 851.6
20260902023026 73 205 2.6 5.2 0.00 0.00 0.00 51 851.7
20260902021527 74 219 2.6 6.1 0.00 0.00 0.00 49 851.6
20260902020032 76 226 2.6 8.7 0.00 0.00 0.00 45 851.5
20260902014533 78 229 3.5 7.0 0.00 0.00 0.00 42 851.3
20260902013029 79 232 4.3 7.8 0.00 0.00 0.00 40 851.5
20260902011530 80 237 3.5 8.7 0.00 0.00 0.00 40 851.4
20260902010035 81 221 5.2 13.0 0.00 0.00 0.00 39 851.5
20260902004534 81 209 5.2 10.4 0.00 0.00 0.00 40 851.4
20260902003107 82 256 7.8 15.6 0.00 0.00 0.00 37 851.4
20260902001530 83 254 7.0 13.9 0.00 0.00 0.00 37 851.5
20260902000035 83 255 8.7 13.9 0.00 0.00 0.00 35 851.5
20260901234532 82 230 8.7 13.9 0.00 0.00 0.00 35 851.5
20260901233033 82 176 7.0 18.2 0.00 0.00 0.00 37 851.6
20260901231527 82 201 9.6 13.0 0.00 0.00 0.00 39 851.5
20260901230029 83 191 6.1 16.5 0.00 0.00 0.00 36 851.5
20260901224530 84 195 7.8 16.5 0.00 0.00 0.00 35 851.5
20260901223031 84 163 12.2 18.2 0.00 0.00 0.00 34 851.5